FW4331 Weather Reports


time (UTC)temp
C
wind
direction
speed
KPH
gust
KPH
rain 1hr
cm
rain 24hr
cm
rain mn
cm
humidity
%
barometer
mb
20260507160010 13 19 3.2 11.3 0.00 0.15 0.13 38 1010.5
20260507154509 13 118 0.0 9.7 0.00 0.15 0.13 40 1010.5
20260507153004 13 41 1.6 9.7 0.00 0.15 0.13 41 1010.5
20260507151501 12 50 0.0 9.7 0.00 0.15 0.13 42 1010.7
20260507150113 12 323 0.0 8.0 0.00 0.15 0.13 43 1010.9
20260507144557 12 61 0.0 16.1 0.00 0.30 0.13 43 1010.9
20260507143105 12 63 0.0 6.4 0.00 0.30 0.13 44 1011.3
20260507141552 12 18 1.6 8.0 0.00 0.30 0.13 45 1011.5
20260507140053 11 23 1.6 11.3 0.00 0.30 0.13 45 1011.5
20260507134547 11 2 4.8 12.9 0.00 0.51 0.13 44 1011.5
20260507133048 11 26 1.6 11.3 0.00 0.51 0.13 45 1011.8
20260507131547 11 306 0.0 12.9 0.00 0.51 0.13 46 1011.8
20260507130046 11 25 0.0 8.0 0.00 0.51 0.13 47 1011.5
20260507124538 11 341 0.0 9.7 0.00 0.71 0.13 46 1011.6
20260507123033 11 31 6.4 16.1 0.00 0.71 0.13 46 1011.2
20260507121527 12 358 6.4 16.1 0.00 0.71 0.13 48 1011.5
20260507120024 12 77 3.2 14.5 0.00 0.71 0.13 49 1011.5
20260507114549 -17 0.0 0.0 0.00 0.71 0.13 1011.4
20260507113047 -17 0.0 0.0 0.00 0.71 0.13 1011.0
20260507111513 -17 0.0 0.0 0.00 0.71 0.13 1010.8
20260507110003 -17 0.0 0.0 0.00 0.71 0.13 1010.6
20260507104603 -17 0.0 0.0 0.00 0.71 0.13 1010.8
20260507103125 12 15 3.2 8.0 0.00 0.71 0.13 54 1010.4
20260507101551 12 326 0.0 6.4 0.00 0.71 0.13 54 1010.5
20260507094548 12 19 0.0 6.4 0.00 0.71 0.13 54 1010.2
20260507093043 12 20 0.0 4.8 0.00 0.71 0.13 54 1010.1
20260507091545 12 20 0.0 6.4 0.00 0.71 0.13 53 1010.1
20260507090041 12 44 0.0 6.4 0.00 0.71 0.13 53 1009.8
20260507084544 12 356 0.0 6.4 0.00 0.71 0.13 52 1010.0
20260507083033 12 26 0.0 3.2 0.00 0.71 0.13 53 1009.9
20260507081530 12 30 0.0 1.6 0.00 0.71 0.13 55 1009.9
20260507080029 12 20 0.0 1.6 0.00 0.71 0.13 54 1009.9
20260507074524 12 34 0.0 3.2 0.00 0.71 0.13 53 1009.3
20260507073023 12 4 0.0 9.7 0.00 0.71 0.13 53 1009.2
20260507071522 12 13 4.8 11.3 0.00 0.71 0.13 52 1009.1
20260507070017 12 360 1.6 16.1 0.00 0.71 0.13 52 1009.1
20260507064513 12 35 1.6 16.1 0.00 0.71 0.13 52 1009.3
20260507063008 12 15 4.8 16.1 0.00 0.71 0.13 53 1009.5
20260507061509 12 359 1.6 6.4 0.05 0.71 0.13 54 1009.7
20260507060005 12 28 0.0 11.3 0.05 0.71 0.13 55 1009.3
20260507054615 12 17 4.8 17.7 0.08 0.71 0.13 54 1009.1
20260507053106 12 19 6.4 17.7 0.10 0.71 0.13 55 1009.2
20260507051558 13 34 3.2 11.3 0.08 0.71 0.10 55 1009.2
20260507050054 13 93 1.6 8.0 0.08 0.69 0.08 56 1008.8
20260507044553 13 69 4.8 11.3 0.08 0.66 0.05 58 1009.1
20260507043039 14 19 3.2 14.5 0.05 0.64 0.03 57 1008.8
20260507041534 15 72 0.0 8.0 0.05 0.64 0.03 58 1009.7
20260507040036 15 8 1.6 11.3 0.03 0.61 0.00 59 1009.5
20260507034527 16 298 3.2 14.5 0.00 0.58 0.58 57 1008.6
20260507033024 16 21 4.8 9.7 0.00 0.58 0.58 55 1008.7
20260507031523 16 15 8.0 22.5 0.00 0.58 0.58 54 1008.6
20260507030023 17 36 3.2 17.7 0.00 0.58 0.58 53 1008.9
20260507024518 17 51 6.4 19.3 0.00 0.58 0.58 53 1008.1
20260507023016 17 14 1.6 19.3 0.00 0.58 0.58 53 1008.2
20260507021513 17 46 4.8 16.1 0.00 0.58 0.58 54 1008.1
20260507020013 17 31 4.8 14.5 0.00 0.58 0.58 54 1007.6
20260507014509 18 46 0.0 9.7 0.00 0.58 0.58 54 1007.4
20260507013007 18 49 3.2 12.9 0.00 0.58 0.58 55 1007.6
20260507011504 18 359 3.2 12.9 0.00 0.58 0.58 55 1007.7
20260507010001 18 34 3.2 11.3 0.00 0.58 0.58 57 1008.1
20260507004559 19 20 0.0 1.6 0.00 0.58 0.58 57 1007.6
20260507003056 19 342 0.0 1.6 0.00 0.58 0.58 58 1007.5
20260507001602 20 352 0.0 1.6 0.00 0.58 0.58 58 1007.3
20260507000118 20 14 0.0 6.4 0.00 0.58 0.58 58 1007.2
20260506234607 20 338 0.0 0.0 0.00 0.58 0.58 58 1006.9
20260506233050 20 286 0.0 1.6 0.00 0.58 0.58 56 1006.6
20260506231544 20 238 0.0 4.8 0.00 0.58 0.58 55 1006.5
20260506230041 21 236 0.0 6.4 0.00 0.58 0.58 54 1006.4
20260506224538 21 238 1.6 12.9 0.00 0.58 0.58 54 1006.4
20260506223033 21 259 3.2 9.7 0.00 0.58 0.58 54 1006.3
20260506221530 21 266 3.2 12.9 0.00 0.58 0.58 53 1006.4
20260506220025 21 231 1.6 12.9 0.00 0.58 0.58 53 1006.4
20260506214523 21 230 6.4 16.1 0.00 0.58 0.58 53 1006.5
20260506213022 21 214 4.8 16.1 0.00 0.58 0.58 53 1006.5
20260506211536 21 252 6.4 20.9 0.00 0.58 0.58 53 1006.4
20260506210031 21 236 9.7 17.7 0.00 0.58 0.58 53 1006.4
20260506204522 20 261 6.4 16.1 0.00 0.58 0.58 54 1006.3
20260506203016 21 222 8.0 17.7 0.00 0.58 0.58 53 1005.9
20260506201614 20 321 12.9 24.1 0.00 0.58 0.58 52 1006.2
20260506200012 20 217 4.8 14.5 0.00 0.58 0.58 53 1006.3
20260506194507 20 264 6.4 16.1 0.00 0.58 0.58 53 1006.4
20260506193004 20 263 8.0 19.3 0.00 0.58 0.58 52 1006.4
20260506191501 20 277 4.8 14.5 0.00 0.58 0.58 52 1006.6
20260506190058 19 239 8.0 19.3 0.00 0.58 0.58 53 1007.0
20260506184559 19 214 6.4 19.3 0.00 0.58 0.58 52 1007.1
20260506183101 18 280 6.4 19.3 0.00 0.58 0.58 53 1007.2
20260506181603 18 233 3.2 19.3 0.00 0.58 0.58 52 1007.1
20260506180049 18 207 3.2 12.9 0.00 0.58 0.58 51 1007.3
20260506174545 18 238 4.8 12.9 0.00 0.58 0.58 51 1007.5
20260506173111 17 249 4.8 22.5 0.00 0.58 0.58 51 1007.5
20260506171544 17 165 9.7 24.1 0.00 0.58 0.58 51 1007.5
20260506170052 17 249 16.1 25.7 0.00 0.58 0.58 51 1007.4
20260506164538 17 216 8.0 27.4 0.00 0.58 0.58 51 1007.5
20260506163043 17 190 11.3 20.9 0.00 0.58 0.58 50 1007.6
20260506161532 17 248 12.9 20.9 0.00 0.58 0.58 47 1007.8